#timestamp,LO_Frequency,Hit,StdDev 
1558764015.2,286046996.6,N
1558764035.1,286046998.4,N
1558764036.0,286046998.4,N
1558764055.8,286046999.3,N
1558764075.7,286046997.7,N
1558764095.5,286046999.0,N
1558764115.3,286046999.6,N
1558764135.2,286046997.7,N
1558764155.0,286046999.3,N
1558764155.9,286046999.3,N
1558764175.8,286046998.7,N
1558764195.6,286047000.8,N
1558764215.4,286046998.2,N
1558764235.3,286047000.6,N
1558764255.1,286047000.6,N
1558764275.8,286047000.5,N
1558764295.7,286046998.4,N
1558764315.5,286046999.1,N
1558764335.4,286046997.3,N
1558764355.2,286046994.9,Y
1558764375.0,286046997.5,P
1558764375.9,286046997.5,P
1558764395.8,286046996.6,P
1558764415.6,286046999.4,N
1558764435.5,286046996.7,Y
1558764455.3,286046999.5,P
1558764475.1,286046998.8,N
1558764495.9,286046998.9,N
1558764515.7,286046998.6,N
1558764535.5,286046998.3,Y
1558764555.4,286047000.8,P
1558764575.2,286046998.1,N
1558764595.1,286046998.1,N
1558764596.0,286046998.1,N
1558764615.8,286046999.9,N
1558764635.6,286047000.9,N
1558764655.5,286047000.0,N
1558764675.3,286047000.2,N
1558764695.1,286047004.4,Y
1558764715.9,286047001.3,P
1558764735.7,286047001.9,N
1558764755.6,286047001.6,N
1558764775.4,286047001.0,N
1558764795.2,286047002.4,N
1558764815.1,286047002.5,N
1558764816.0,286047002.5,N
1558764835.8,286047004.4,Y
1558764855.6,286047000.4,P
1558764875.5,286047002.0,P
1558764895.3,286047003.8,P
1558764915.2,286047001.7,N
1558764935.9,286047003.5,Y
1558764955.7,286047004.0,P
1558764975.6,286047001.7,N
1558764995.4,286047001.6,N
1558765015.2,286047003.8,Y
1558765035.1,286047000.7,P
1558765036.0,286047000.7,N
1558765055.8,286047001.1,N
1558765075.7,286047000.7,N
1558765095.6,286046998.4,N
1558765115.5,286046997.6,N
1558765135.3,286046996.7,N
1558765155.1,286046997.0,N
1558765175.9,286046996.7,N
1558765195.7,286046997.7,N
1558765215.6,286046997.2,N
1558765235.4,286046996.9,N
1558765255.2,286046999.3,N
1558765275.1,286046996.9,N
1558765276.0,286046996.9,N
1558765295.8,286046999.4,N
1558765315.6,286046998.8,N
1558765335.5,286047001.2,N
1558765355.3,286046996.9,N
1558765375.1,286046997.2,N
1558765395.9,286046998.9,N
1558765415.7,286046998.8,N
1558765435.6,286047003.8,N
1558765455.4,286046998.1,N
1558765475.2,286046998.9,N
1558765495.1,286047001.2,N
1558765496.0,286047001.2,N
1558765515.8,286047000.0,N
1558765535.7,286047000.9,N
1558765555.5,286047004.4,N
1558765575.3,286047002.7,N
1558765595.2,286047000.0,N
1558765615.3,286047000.7,N
1558765635.2,286047000.4,N
1558765655.9,286046999.8,N
1558765675.7,286047000.1,N
1558765695.6,286046998.8,N
1558765715.4,286046997.2,N
1558765735.2,286046997.8,N
1558765755.2,286046994.9,N
1558765775.9,286046995.3,N
1558765795.7,286046995.2,N
1558765815.6,286046995.1,N
1558765835.4,286046996.1,N
1558765855.2,286046997.2,N
1558765875.1,286046997.8,N
1558765876.0,286046997.8,N
1558765895.8,286046997.1,N
1558765915.7,286046996.2,N
1558765935.5,286046995.3,N
1558765955.3,286046995.2,N
1558765975.2,286046997.1,N
1558765995.0,286046997.0,N
1558765995.9,286046997.0,N
1558766015.8,286046996.7,N
1558766035.6,286046998.8,N
1558766055.4,286046998.9,N
1558766075.3,286046997.4,N
1558766095.1,286046997.7,N
1558766096.0,286046997.7,N
1558766115.8,286047001.0,N
1558766135.7,286046998.7,N
1558766155.5,286046998.5,N
1558766175.4,286047006.0,Y
1558766195.2,286047014.0,P
1558766215.0,286047024.1,N
1558766215.9,286047024.1,N
1558766235.8,286047019.4,N
1558766255.6,286047020.4,N
1558766275.5,286047017.1,N
1558766295.3,286047012.6,N
1558766315.1,286047013.6,N
1558766335.9,286047012.2,N
1558766355.7,286047009.9,N
1558766375.5,286047008.5,N
1558766395.4,286047008.9,N
1558766415.2,286047008.9,N
1558766435.0,286047006.7,N
1558766435.9,286047006.7,N
1558766455.8,286047008.9,N
1558766475.6,286047003.1,N
1558766495.5,286047001.5,N
1558766515.3,286047001.9,N
1558766535.1,286047001.9,N
1558766555.9,286047002.2,N
1558766575.7,286047002.1,N
1558766595.6,286047001.9,N
1558766615.4,286047001.3,N
1558766635.2,286047001.5,N
1558766655.1,286047001.7,N
1558766656.0,286047001.7,N
1558766675.8,286047002.6,N
1558766695.6,286046999.9,N
1558766715.5,286047002.7,N
1558766735.3,286046998.7,N
1558766755.2,286046996.9,N
1558766775.9,286046996.9,N
1558766795.7,286046998.1,N
1558766815.6,286047001.2,N
1558766835.4,286046999.0,N
1558766855.2,286046996.8,N
1558766875.1,286046997.3,N
1558766876.0,286046997.3,N
1558766895.8,286046999.5,N
1558766915.7,286046998.2,N
1558766935.5,286046998.4,N
1558766955.3,286046999.4,N
1558766975.2,286046996.7,N
1558766995.0,286046996.8,N
1558766995.9,286046996.8,N
1558767015.7,286046998.4,N
1558767035.6,286047000.2,N
1558767055.4,286046998.7,N
1558767075.3,286046999.2,N
1558767095.1,286046998.4,N
1558767115.8,286046999.7,N
1558767135.7,286046998.1,N
1558767155.5,286047000.5,N
1558767175.3,286046998.3,N
1558767195.2,286046999.5,N
1558767215.0,286046999.5,N
1558767215.9,286046999.5,N
1558767235.8,286046998.4,N
1558767255.6,286046999.1,N
1558767275.4,286047002.2,N
1558767295.3,286047000.5,N
1558767315.1,286047000.5,N
1558767335.9,286047002.7,N
1558767355.7,286047001.2,N
1558767375.5,286046998.2,N
1558767395.4,286046997.6,N
1558767415.2,286046997.8,N
1558767435.0,286046999.1,N
1558767435.9,286046999.1,N
1558767455.8,286046999.4,N
1558767475.6,286046999.5,N
1558767495.5,286046999.3,N
1558767515.3,286047000.0,N
1558767535.1,286046998.1,N
1558767555.9,286047002.8,N
1558767575.7,286046998.6,N
1558767595.5,286047002.8,N
